History for Miami, FL

Monday, December 17, 2012 — View Current Conditions

Jump to Data:

Date:
Airport Code:
Recently Viewed Airport Codes: KMIA
Daily Summary
  Actual Average Record
Temperature
Mean Temperature 75°F 70°F  
Max Temperature 83°F 78°F 85°F (1965)
Min Temperature 66°F 63°F 41°F (1942)
Degree Days
Heating Degree Days 0 1  
Month to date heating degree days 0 13  
Since 1 July heating degree days 1 16  
Cooling Degree Days 10 6  
Month to date cooling degree days 173 122  
Year to date cooling degree days 4613 4494  
Growing Degree Days 24 (Base 50)    
Moisture
Dew Point 66°F    
Average Humidity 76    
Maximum Humidity 93    
Minimum Humidity 58    
Precipitation
Precipitation 0.00 in 0.07 in 0.94 in (1963)
Month to date precipitation 0.51 1.17  
Year to date precipitation 86.94 61.03  
Snow
Snow 0.00 in in in ()
Month to date snowfall 0.0  
Since 1 July snowfall 0.0  
Snow Depth 0.00 in    
Sea Level Pressure
Sea Level Pressure 29.97 in    
Wind
Wind Speed 4 mph (SSW)    
Max Wind Speed 14 mph    
Max Gust Speed 22 mph    
Visibility 10 miles    
Events      
T = Trace of Precipitation, MM = Missing Value Source: NWS Daily Summary

Show full METARS

(help) - Comma Delimited File

Hourly Observations

Time(EST) Temperature Dew Point Humidity Sea Level Pressure Visibility Wind Direction Wind Speed Gust Speed Precipitation Events Conditions
12:53 AM 68.0°F 64.9°F 90% 29.99 in 10.0 miles Calm Calm - N/A   Clear
1:53 AM 68.0°F 64.9°F 90% 30.00 in 10.0 miles Calm Calm - N/A   Scattered Clouds
2:53 AM 68.0°F 64.9°F 90% 29.99 in 10.0 miles Calm Calm - N/A   Clear
3:53 AM 66.9°F 64.0°F 90% 29.97 in 10.0 miles Calm Calm - N/A   Partly Cloudy
4:53 AM 66.9°F 64.9°F 93% 29.98 in 10.0 miles Calm Calm - N/A   Clear
5:53 AM 66.9°F 64.0°F 90% 29.97 in 10.0 miles Calm Calm - N/A   Scattered Clouds
6:53 AM 68.0°F 64.0°F 87% 29.99 in 10.0 miles Calm Calm - N/A   Mostly Cloudy
7:53 AM 69.1°F 64.0°F 84% 29.98 in 10.0 miles Calm Calm - N/A   Mostly Cloudy
8:53 AM 73.0°F 64.9°F 76% 29.99 in 10.0 miles Calm Calm - N/A   Mostly Cloudy
9:53 AM 77.0°F 66.9°F 71% 30.00 in 10.0 miles South 8.1 mph - N/A   Mostly Cloudy
10:53 AM 79.0°F 66.0°F 64% 29.99 in 10.0 miles South 6.9 mph - N/A   Mostly Cloudy
11:53 AM 80.1°F 64.0°F 58% 29.97 in 10.0 miles South 10.4 mph - N/A   Mostly Cloudy
12:53 PM 80.1°F 66.9°F 64% 29.94 in 10.0 miles SSE 10.4 mph - N/A   Mostly Cloudy
1:53 PM 79.0°F 66.9°F 66% 29.91 in 10.0 miles South 11.5 mph - N/A   Mostly Cloudy
2:53 PM 79.0°F 68.0°F 69% 29.91 in 10.0 miles South 6.9 mph - N/A   Mostly Cloudy
3:53 PM 81.0°F 66.0°F 60% 29.92 in 10.0 miles SSW 10.4 mph 21.9 mph N/A   Mostly Cloudy
4:53 PM 80.1°F 64.9°F 60% 29.93 in 10.0 miles SW 9.2 mph - N/A   Mostly Cloudy
7:53 PM 75.9°F 68.0°F 76% 29.98 in 10.0 miles WSW 4.6 mph - N/A   Scattered Clouds
8:53 PM 75.0°F 68.0°F 79% 29.98 in 10.0 miles Calm Calm - N/A   Mostly Cloudy
9:53 PM 73.0°F 69.1°F 87% 29.99 in 10.0 miles Calm Calm - N/A   Scattered Clouds
10:53 PM 71.1°F 68.0°F 90% 29.99 in 10.0 miles Calm Calm - N/A   Partly Cloudy
11:53 PM 71.1°F 68.0°F 90% 29.98 in 10.0 miles Calm Calm - N/A   Partly Cloudy